Monticello, IA

2:11 PM CDT on August 30, 2016 (GMT -0500)
Monticello Regional

Weather History for KMXO - January, 2013

Change the Weather History Date:

Thursday, January 3, 2013

  Actual Average Record
Temperature  
Mean Temperature 18 °F -  
Max Temperature 28 °F 29 °F 51 °F (1998)
Min Temperature 8 °F 14 °F -20 °F (2014)
Degree Days  
Heating Degree Days 47    
Moisture  
Dew Point 12 °F    
Average Humidity 77    
Maximum Humidity 86    
Minimum Humidity 73    
Precipitation  
Precipitation 0.00 in - - ()
Sea Level Pressure  
Sea Level Pressure 30.23 in    
Wind  
Wind Speed 11 mph (West)    
Max Wind Speed 17 mph    
Max Gust Speed 20 mph    
Visibility 10 miles    
Events Snow    
Averages and records for this station are not official NWS values.
T = Trace of Precipitation, MM = Missing Value Source: NWS Daily Summary

Daily Weather History Graph

Daily Weather History Graph

Search for Another Location

Airport or City:

Trip Planner

Search our weather history database for the weather conditions in past years. The results will help you decide how hot, cold, wet, or windy it might be!

Date:

Astronomy

Jan. 03, 2013 Rise Set
Actual Time 7:33 AM CST 4:45 PM CST
Civil Twilight 7:01 AM CST 5:16 PM CST
Nautical Twilight 6:26 AM CST 5:52 PM CST
Astronomical Twilight 5:52 AM CST 6:26 PM CST
Moon 11:29 PM CST (1/3) 10:37 AM CST (1/3)
Length of Visible Light 10h 15m
Length of Day
9h 11m
Waning Gibbous, 65% of the Moon is Illuminated
Jan 3
Waning Gibbous
Jan 4
Last Quarter
Jan 11
New
Jan 18
First Quarter
Jan 26
Full

Hourly Weather History & Observations

Time (CST) Temp. Windchill Dew Point Humidity Pressure Visibility Wind Dir Wind Speed Gust Speed Precip Events Conditions
12:15 AM 26.6 °F 18.2 °F 21.2 °F 80% 30.09 in 7.0 mi WSW 8.1 mph - N/A   Overcast
12:35 AM 28.4 °F 19.1 °F 23.0 °F 80% 30.09 in 7.0 mi West 10.4 mph - N/A   Overcast
12:55 AM 28.4 °F 18.5 °F 23.0 °F 80% 30.10 in 5.0 mi West 11.5 mph - N/A   Haze
1:15 AM 28.4 °F 18.5 °F 23.0 °F 80% 30.10 in 4.0 mi West 11.5 mph - N/A   Haze
1:35 AM 28.4 °F 18.5 °F 24.8 °F 86% 30.10 in 5.0 mi West 11.5 mph - N/A   Overcast
1:55 AM 28.4 °F 19.1 °F 24.8 °F 86% 30.11 in 7.0 mi West 10.4 mph - N/A   Overcast
2:15 AM 28.4 °F 19.7 °F 24.8 °F 86% 30.11 in 7.0 mi West 9.2 mph - N/A   Overcast
2:35 AM 28.4 °F 19.1 °F 24.8 °F 86% 30.12 in 7.0 mi West 10.4 mph - N/A   Overcast
2:55 AM 28.4 °F 18.5 °F 24.8 °F 86% 30.12 in 10.0 mi WNW 11.5 mph - N/A   Overcast
3:15 AM 28.4 °F 16.6 °F 23.0 °F 80% 30.12 in 10.0 mi WNW 16.1 mph - N/A   Overcast
3:35 AM 28.4 °F 16.2 °F 21.2 °F 74% 30.12 in 10.0 mi WNW 17.3 mph - N/A   Overcast
3:55 AM 26.6 °F 17.5 °F 21.2 °F 80% 30.12 in 10.0 mi NW 9.2 mph - N/A   Overcast
4:15 AM 26.6 °F 16.8 °F 19.4 °F 74% 30.13 in 10.0 mi WNW 10.4 mph - N/A   Overcast
4:35 AM 26.6 °F 16.8 °F 19.4 °F 74% 30.13 in 10.0 mi WNW 10.4 mph - N/A   Overcast
4:55 AM 24.8 °F 16.9 °F 17.6 °F 74% 30.13 in 10.0 mi WNW 6.9 mph - N/A   Mostly Cloudy
5:15 AM 24.8 °F 19.1 °F 17.6 °F 74% 30.14 in 10.0 mi West 4.6 mph - N/A   Mostly Cloudy
5:35 AM 24.8 °F 20.5 °F 17.6 °F 74% 30.15 in 10.0 mi NNW 3.5 mph - N/A   Overcast
5:55 AM 24.8 °F 19.1 °F 17.6 °F 74% 30.16 in 10.0 mi NW 4.6 mph - N/A   Overcast
6:15 AM 24.8 °F 19.1 °F 17.6 °F 74% 30.16 in 10.0 mi NW 4.6 mph - N/A   Overcast
6:35 AM 24.8 °F 12.9 °F 17.6 °F 74% 30.17 in 10.0 mi WNW 13.8 mph - N/A   Overcast
6:55 AM 21.2 °F 6.8 °F 15.8 °F 80% 30.19 in 10.0 mi NW 17.3 mph - N/A   Overcast
7:15 AM 17.6 °F 4.3 °F 10.4 °F 73% 30.20 in 10.0 mi NW 12.7 mph 19.6 mph N/A   Scattered Clouds
7:35 AM 17.6 °F 3.2 °F 10.4 °F 73% 30.21 in 10.0 mi NW 15.0 mph - N/A   Clear
7:55 AM 15.8 °F 2.1 °F 8.6 °F 73% 30.21 in 10.0 mi WNW 12.7 mph - N/A   Clear
8:15 AM 15.8 °F 4.2 °F 8.6 °F 73% 30.23 in 10.0 mi WNW 9.2 mph - N/A   Scattered Clouds
8:35 AM 15.8 °F 1.4 °F 8.6 °F 73% 30.24 in 10.0 mi WNW 13.8 mph 17.3 mph N/A   Scattered Clouds
8:55 AM 15.8 °F 2.1 °F 8.6 °F 73% 30.24 in 10.0 mi WNW 12.7 mph 17.3 mph N/A   Mostly Cloudy
9:35 AM 15.8 °F 0.3 °F 8.6 °F 73% 30.25 in 10.0 mi West 16.1 mph 19.6 mph N/A   Overcast
9:55 AM 15.8 °F 0.9 °F 10.4 °F 79% 30.25 in 10.0 mi WNW 15.0 mph - N/A   Overcast
10:15 AM 17.6 °F 3.7 °F 10.4 °F 73% 30.26 in 10.0 mi WNW 13.8 mph 19.6 mph N/A   Overcast
10:35 AM 17.6 °F 3.2 °F 10.4 °F 73% 30.26 in 7.0 mi WNW 15.0 mph - N/A Snow Light Snow
10:55 AM 17.6 °F 3.7 °F 10.4 °F 73% 30.26 in 7.0 mi WNW 13.8 mph - N/A Snow Light Snow
11:15 AM 17.6 °F 3.7 °F 10.4 °F 73% 30.26 in 10.0 mi WNW 13.8 mph - N/A Snow Light Snow
11:35 AM 17.6 °F 4.3 °F 10.4 °F 73% 30.26 in 10.0 mi WNW 12.7 mph - N/A   Overcast
11:55 AM 17.6 °F 4.3 °F 12.2 °F 79% 30.25 in 10.0 mi West 12.7 mph - N/A   Overcast
12:15 PM 17.6 °F 3.2 °F 12.2 °F 79% 30.25 in 10.0 mi West 15.0 mph - N/A   Overcast
12:35 PM 17.6 °F 2.7 °F 12.2 °F 79% 30.25 in 10.0 mi West 16.1 mph - N/A   Overcast
12:55 PM 19.4 °F 5.5 °F 12.2 °F 74% 30.25 in 10.0 mi West 15.0 mph - N/A   Overcast
1:15 PM 19.4 °F 6.6 °F 12.2 °F 74% 30.26 in 10.0 mi West 12.7 mph - N/A   Overcast
1:35 PM 19.4 °F 5.5 °F 12.2 °F 74% 30.25 in 10.0 mi West 15.0 mph - N/A   Overcast
1:55 PM 19.4 °F 5.5 °F 12.2 °F 74% 30.25 in 10.0 mi West 15.0 mph - N/A   Overcast
2:15 PM 19.4 °F 6.0 °F 12.2 °F 74% 30.26 in 10.0 mi West 13.8 mph - N/A   Overcast
2:35 PM 19.4 °F 6.6 °F 12.2 °F 74% 30.27 in 10.0 mi West 12.7 mph - N/A   Overcast
2:55 PM 19.4 °F 6.0 °F 12.2 °F 74% 30.27 in 10.0 mi West 13.8 mph - N/A   Overcast
3:15 PM 19.4 °F 7.2 °F 12.2 °F 74% 30.28 in 10.0 mi West 11.5 mph - N/A   Overcast
3:35 PM 19.4 °F 6.6 °F 12.2 °F 74% 30.28 in 10.0 mi West 12.7 mph - N/A   Overcast
3:55 PM 17.6 °F 3.7 °F 12.2 °F 79% 30.29 in 10.0 mi West 13.8 mph - N/A   Overcast
4:15 PM 17.6 °F 3.2 °F 10.4 °F 73% 30.30 in 10.0 mi West 15.0 mph - N/A   Overcast
4:35 PM 17.6 °F 3.7 °F 10.4 °F 73% 30.31 in 10.0 mi West 13.8 mph - N/A   Overcast
4:55 PM 17.6 °F 4.3 °F 10.4 °F 73% 30.31 in 10.0 mi West 12.7 mph - N/A   Overcast
5:15 PM 17.6 °F 5.7 °F 10.4 °F 73% 30.31 in 10.0 mi West 10.4 mph - N/A   Overcast
5:35 PM 15.8 °F 2.7 °F 8.6 °F 73% 30.31 in 10.0 mi West 11.5 mph - N/A   Scattered Clouds
5:55 PM 15.8 °F 4.2 °F 8.6 °F 73% 30.32 in 10.0 mi West 9.2 mph - N/A   Clear
6:15 PM 14.0 °F 2.9 °F 6.8 °F 73% 30.32 in 10.0 mi West 8.1 mph - N/A   Clear
6:35 PM 12.2 °F 1.7 °F 6.8 °F 79% 30.32 in 10.0 mi West 6.9 mph - N/A   Clear
6:55 PM 12.2 °F 1.7 °F 6.8 °F 79% 30.33 in 10.0 mi West 6.9 mph - N/A   Clear
7:15 PM 12.2 °F -0.2 °F 6.8 °F 79% 30.33 in 10.0 mi West 9.2 mph - N/A   Clear
7:35 PM 12.2 °F 0.7 °F 6.8 °F 79% 30.33 in 10.0 mi West 8.1 mph - N/A   Clear
7:55 PM 12.2 °F 1.7 °F 6.8 °F 79% 30.32 in 10.0 mi West 6.9 mph - N/A   Clear
8:15 PM 12.2 °F 1.7 °F 6.8 °F 79% 30.33 in 10.0 mi West 6.9 mph - N/A   Clear
8:35 PM 10.4 °F 0.8 °F 5.0 °F 79% 30.32 in 10.0 mi West 5.8 mph - N/A   Clear
8:55 PM 10.4 °F 0.8 °F 6.8 °F 85% 30.31 in 10.0 mi West 5.8 mph - N/A   Clear
9:15 PM 10.4 °F 2.2 °F 5.0 °F 79% 30.31 in 10.0 mi West 4.6 mph - N/A   Clear
9:35 PM 10.4 °F 4.0 °F 3.2 °F 73% 30.31 in 10.0 mi WNW 3.5 mph - N/A   Clear
9:55 PM 10.4 °F 0.8 °F 5.0 °F 79% 30.31 in 10.0 mi West 5.8 mph - N/A   Clear
10:15 PM 10.4 °F 0.8 °F 3.2 °F 73% 30.31 in 10.0 mi West 5.8 mph - N/A   Clear
10:35 PM 8.6 °F 2.0 °F 3.2 °F 79% 30.30 in 10.0 mi West 3.5 mph - N/A   Clear
10:55 PM 8.6 °F 0.1 °F 3.2 °F 79% 30.29 in 10.0 mi WSW 4.6 mph - N/A   Clear
11:15 PM 8.6 °F 0.1 °F 3.2 °F 79% 30.28 in 10.0 mi West 4.6 mph - N/A   Clear
11:35 PM 10.4 °F -0.4 °F 5.0 °F 79% 30.28 in 10.0 mi West 6.9 mph - N/A   Clear
11:55 PM 10.4 °F 0.8 °F 5.0 °F 79% 30.27 in 10.0 mi West 5.8 mph - N/A   Clear